Year,Month,Day,Hour,Minute,Value (Times are PST for temperature in C)
2017,10,27,00,00,3.80
2017,10,27,00,01,3.70
2017,10,27,00,02,3.70
2017,10,27,00,03,3.70
2017,10,27,00,04,3.70
2017,10,27,00,05,3.70
2017,10,27,00,06,3.70
2017,10,27,00,07,3.70
2017,10,27,00,08,3.70
2017,10,27,00,09,3.70
2017,10,27,00,10,3.70
2017,10,27,00,11,3.70
2017,10,27,00,12,3.70
2017,10,27,00,13,3.70
2017,10,27,00,14,3.60
2017,10,27,00,15,3.60
2017,10,27,00,16,3.60
2017,10,27,00,17,3.60
2017,10,27,00,18,3.60
2017,10,27,00,19,3.60
2017,10,27,00,20,3.60
2017,10,27,00,21,3.60
2017,10,27,00,22,3.60
2017,10,27,00,23,3.60
2017,10,27,00,24,3.60
2017,10,27,00,25,3.60
2017,10,27,00,26,3.60
2017,10,27,00,27,3.60
2017,10,27,00,28,3.60
2017,10,27,00,29,3.60
2017,10,27,00,30,3.50
2017,10,27,00,31,3.60
2017,10,27,00,32,3.60
2017,10,27,00,33,3.50
2017,10,27,00,34,3.50
2017,10,27,00,35,3.50
2017,10,27,00,36,3.50
2017,10,27,00,37,3.50
2017,10,27,00,38,3.50
2017,10,27,00,39,3.50
2017,10,27,00,40,3.50
2017,10,27,00,41,3.50
2017,10,27,00,42,3.50
2017,10,27,00,43,3.50
2017,10,27,00,44,3.50
2017,10,27,00,45,3.40
2017,10,27,00,46,3.40
2017,10,27,00,47,3.40
2017,10,27,00,48,3.40
2017,10,27,00,49,3.40
2017,10,27,00,50,3.40
2017,10,27,00,51,3.40
2017,10,27,00,52,3.40
2017,10,27,00,53,3.40
2017,10,27,00,54,3.40
2017,10,27,00,55,3.40
2017,10,27,00,56,3.40
2017,10,27,00,57,3.30
2017,10,27,00,58,3.30
2017,10,27,00,59,3.30
2017,10,27,01,00,3.30
2017,10,27,01,01,3.30
2017,10,27,01,02,3.30
2017,10,27,01,03,3.30
2017,10,27,01,04,3.30
2017,10,27,01,05,3.30
2017,10,27,01,06,3.30
2017,10,27,01,07,3.20
2017,10,27,01,08,3.20
2017,10,27,01,09,3.20
2017,10,27,01,10,3.20
2017,10,27,01,11,3.20
2017,10,27,01,12,3.20
2017,10,27,01,13,3.20
2017,10,27,01,14,3.20
2017,10,27,01,15,3.20
2017,10,27,01,16,3.20
2017,10,27,01,17,3.20
2017,10,27,01,18,3.20
2017,10,27,01,19,3.20
2017,10,27,01,20,3.20
2017,10,27,01,21,3.20
2017,10,27,01,22,3.20
2017,10,27,01,23,3.20
2017,10,27,01,24,3.20
2017,10,27,01,25,3.20
2017,10,27,01,26,3.20
2017,10,27,01,27,3.20
2017,10,27,01,28,3.20
2017,10,27,01,29,3.10
2017,10,27,01,30,3.10
2017,10,27,01,31,3.10
2017,10,27,01,32,3.10
2017,10,27,01,33,3.10
2017,10,27,01,34,3.10
2017,10,27,01,35,3.10
2017,10,27,01,36,3.10
2017,10,27,01,37,3.10
2017,10,27,01,38,3.10
2017,10,27,01,39,3.10
2017,10,27,01,40,3.10
2017,10,27,01,41,3.10
2017,10,27,01,42,3.20
2017,10,27,01,43,3.20
2017,10,27,01,44,3.20
2017,10,27,01,45,3.20
2017,10,27,01,46,3.20
2017,10,27,01,47,3.20
2017,10,27,01,48,3.20
2017,10,27,01,49,3.20
2017,10,27,01,50,3.20
2017,10,27,01,51,3.10
2017,10,27,01,52,3.10
2017,10,27,01,53,3.10
2017,10,27,01,54,3.10
2017,10,27,01,55,3.10
2017,10,27,01,56,3.10
2017,10,27,01,57,3.10
2017,10,27,01,58,3.20
2017,10,27,01,59,3.10
2017,10,27,02,00,3.10
2017,10,27,02,01,3.10
2017,10,27,02,02,3.10
2017,10,27,02,03,3.10
2017,10,27,02,04,3.10
2017,10,27,02,05,3.10
2017,10,27,02,06,3.10
2017,10,27,02,07,3.10
2017,10,27,02,08,3.10
2017,10,27,02,09,3.10
2017,10,27,02,10,3.00
2017,10,27,02,11,3.00
2017,10,27,02,12,3.00
2017,10,27,02,13,3.00
2017,10,27,02,14,2.90
2017,10,27,02,15,2.90
2017,10,27,02,16,2.90
2017,10,27,02,17,2.90
2017,10,27,02,18,2.90
2017,10,27,02,19,2.90
2017,10,27,02,20,2.90
2017,10,27,02,21,2.80
2017,10,27,02,22,2.80
2017,10,27,02,23,2.80
2017,10,27,02,24,2.80
2017,10,27,02,25,2.80
2017,10,27,02,26,2.80
2017,10,27,02,27,2.80
2017,10,27,02,28,2.80
2017,10,27,02,29,2.80
2017,10,27,02,30,2.80
2017,10,27,02,31,2.80
2017,10,27,02,32,2.80
2017,10,27,02,33,2.80
2017,10,27,02,34,2.80
2017,10,27,02,35,2.80
2017,10,27,02,36,2.80
2017,10,27,02,37,2.80
2017,10,27,02,38,2.80
2017,10,27,02,39,2.80
2017,10,27,02,40,2.80
2017,10,27,02,41,2.80
2017,10,27,02,42,2.80
2017,10,27,02,43,2.80
2017,10,27,02,44,2.80
2017,10,27,02,45,2.80
2017,10,27,02,46,2.80
2017,10,27,02,47,2.80
2017,10,27,02,48,2.70
2017,10,27,02,49,2.70
2017,10,27,02,50,2.70
2017,10,27,02,51,2.70
2017,10,27,02,52,2.70
2017,10,27,02,53,2.70
2017,10,27,02,54,2.70
2017,10,27,02,55,2.70
2017,10,27,02,56,2.70
2017,10,27,02,57,2.70
2017,10,27,02,58,2.70
2017,10,27,02,59,2.70
2017,10,27,03,00,2.70
2017,10,27,03,01,2.70
2017,10,27,03,02,2.70
2017,10,27,03,03,2.70
2017,10,27,03,04,2.70
2017,10,27,03,05,2.60
2017,10,27,03,06,2.70
2017,10,27,03,07,2.60
2017,10,27,03,08,2.60
2017,10,27,03,09,2.60
2017,10,27,03,10,2.60
2017,10,27,03,11,2.60
2017,10,27,03,12,2.60
2017,10,27,03,13,2.60
2017,10,27,03,14,2.60
2017,10,27,03,15,2.60
2017,10,27,03,16,2.60
2017,10,27,03,17,2.60
2017,10,27,03,18,2.50
2017,10,27,03,19,2.50
2017,10,27,03,20,2.50
2017,10,27,03,21,2.50
2017,10,27,03,22,2.50
2017,10,27,03,23,2.50
2017,10,27,03,24,2.50
2017,10,27,03,25,2.40
2017,10,27,03,26,2.50
2017,10,27,03,27,2.40
2017,10,27,03,28,2.40
2017,10,27,03,29,2.40
2017,10,27,03,30,2.40
2017,10,27,03,31,2.40
2017,10,27,03,32,2.40
2017,10,27,03,33,2.40
2017,10,27,03,34,2.40
2017,10,27,03,35,2.40
2017,10,27,03,36,2.40
2017,10,27,03,37,2.40
2017,10,27,03,38,2.40
2017,10,27,03,39,2.40
2017,10,27,03,40,2.40
2017,10,27,03,41,2.40
2017,10,27,03,42,2.40
2017,10,27,03,43,2.40
2017,10,27,03,44,2.40
2017,10,27,03,45,2.40
2017,10,27,03,46,2.40
2017,10,27,03,47,2.40
2017,10,27,03,48,2.40
2017,10,27,03,49,2.40
2017,10,27,03,50,2.40
2017,10,27,03,51,2.40
2017,10,27,03,52,2.40
2017,10,27,03,53,2.40
2017,10,27,03,54,2.30
2017,10,27,03,55,2.30
2017,10,27,03,56,2.30
2017,10,27,03,57,2.30
2017,10,27,03,58,2.30
2017,10,27,03,59,2.30
2017,10,27,04,00,2.30
2017,10,27,04,01,2.30
2017,10,27,04,02,2.30
2017,10,27,04,03,2.30
2017,10,27,04,04,2.30
2017,10,27,04,05,2.30
2017,10,27,04,06,2.30
2017,10,27,04,07,2.30
2017,10,27,04,08,2.30
2017,10,27,04,09,2.30
2017,10,27,04,10,2.30
2017,10,27,04,11,2.30
2017,10,27,04,12,2.30
2017,10,27,04,13,2.30
2017,10,27,04,14,2.30
2017,10,27,04,15,2.30
2017,10,27,04,16,2.30
2017,10,27,04,17,2.30
2017,10,27,04,18,2.30
2017,10,27,04,19,2.30
2017,10,27,04,20,2.30
2017,10,27,04,21,2.30
2017,10,27,04,22,2.30
2017,10,27,04,23,2.30
2017,10,27,04,24,2.30
2017,10,27,04,25,2.30
2017,10,27,04,26,2.30
2017,10,27,04,27,2.30
2017,10,27,04,28,2.30
2017,10,27,04,29,2.30
2017,10,27,04,30,2.20
2017,10,27,04,31,2.30
2017,10,27,04,32,2.30
2017,10,27,04,33,2.30
2017,10,27,04,34,2.30
2017,10,27,04,35,2.30
2017,10,27,04,36,2.30
2017,10,27,04,37,2.30
2017,10,27,04,38,2.30
2017,10,27,04,39,2.30
2017,10,27,04,40,2.30
2017,10,27,04,41,2.30
2017,10,27,04,42,2.30
2017,10,27,04,43,2.30
2017,10,27,04,44,2.30
2017,10,27,04,45,2.30
2017,10,27,04,46,2.30
2017,10,27,04,47,2.30
2017,10,27,04,48,2.40
2017,10,27,04,49,2.40
2017,10,27,04,50,2.40
2017,10,27,04,51,2.40
2017,10,27,04,52,2.40
2017,10,27,04,53,2.40
2017,10,27,04,54,2.40
2017,10,27,04,55,2.40
2017,10,27,04,56,2.40
2017,10,27,04,57,2.40
2017,10,27,04,58,2.40
2017,10,27,04,59,2.40
2017,10,27,05,00,2.40
2017,10,27,05,01,2.40
2017,10,27,05,02,2.40
2017,10,27,05,03,2.40
2017,10,27,05,04,2.30
2017,10,27,05,05,2.30
2017,10,27,05,06,2.30
2017,10,27,05,07,2.30
2017,10,27,05,08,2.30
2017,10,27,05,09,2.30
2017,10,27,05,10,2.30
2017,10,27,05,11,2.30
2017,10,27,05,12,2.30
2017,10,27,05,13,2.20
2017,10,27,05,14,2.20
2017,10,27,05,15,2.20
2017,10,27,05,16,2.20
2017,10,27,05,17,2.20
2017,10,27,05,18,2.20
2017,10,27,05,19,2.20
2017,10,27,05,20,2.20
2017,10,27,05,21,2.20
2017,10,27,05,22,2.20
2017,10,27,05,23,2.20
2017,10,27,05,24,2.20
2017,10,27,05,25,2.20
2017,10,27,05,26,2.20
2017,10,27,05,27,2.20
2017,10,27,05,28,2.20
2017,10,27,05,29,2.20
2017,10,27,05,30,2.20
2017,10,27,05,31,2.20
2017,10,27,05,32,2.20
2017,10,27,05,33,2.20
2017,10,27,05,34,2.20
2017,10,27,05,35,2.20
2017,10,27,05,36,2.10
2017,10,27,05,37,2.10
2017,10,27,05,38,2.10
2017,10,27,05,39,2.10
2017,10,27,05,40,2.10
2017,10,27,05,41,2.10
2017,10,27,05,42,2.10
2017,10,27,05,43,2.10
2017,10,27,05,44,2.10
2017,10,27,05,45,2.10
2017,10,27,05,46,2.10
2017,10,27,05,47,2.10
2017,10,27,05,48,2.10
2017,10,27,05,49,2.10
2017,10,27,05,50,2.10
2017,10,27,05,51,2.10
2017,10,27,05,52,2.10
2017,10,27,05,53,2.10
2017,10,27,05,54,2.10
2017,10,27,05,55,2.10
2017,10,27,05,56,2.10
2017,10,27,05,57,2.10
2017,10,27,05,58,2.10
2017,10,27,05,59,2.10
2017,10,27,06,00,2.10
2017,10,27,06,01,2.10
2017,10,27,06,02,2.10
2017,10,27,06,03,2.10
2017,10,27,06,04,2.10
2017,10,27,06,05,2.10
2017,10,27,06,06,2.10
2017,10,27,06,07,2.10
2017,10,27,06,08,2.10
2017,10,27,06,09,2.10
2017,10,27,06,10,2.10
2017,10,27,06,11,2.10
2017,10,27,06,12,2.10
2017,10,27,06,13,2.10
2017,10,27,06,14,2.10
2017,10,27,06,15,2.10
2017,10,27,06,16,2.00
2017,10,27,06,17,2.00
2017,10,27,06,18,2.00
2017,10,27,06,19,2.00
2017,10,27,06,20,2.00
2017,10,27,06,21,2.00
2017,10,27,06,22,2.00
2017,10,27,06,23,2.00
2017,10,27,06,24,2.00
2017,10,27,06,25,2.10
2017,10,27,06,26,2.10
2017,10,27,06,27,2.10
2017,10,27,06,28,2.10
2017,10,27,06,29,2.10
2017,10,27,06,30,2.10
2017,10,27,06,31,2.10
2017,10,27,06,32,2.10
2017,10,27,06,33,2.10
2017,10,27,06,34,2.10
2017,10,27,06,35,2.10
2017,10,27,06,36,2.20
2017,10,27,06,37,2.20
2017,10,27,06,38,2.20
2017,10,27,06,39,2.20
2017,10,27,06,40,2.20
2017,10,27,06,41,2.20
2017,10,27,06,42,2.20
2017,10,27,06,43,2.20
2017,10,27,06,44,2.20
2017,10,27,06,45,2.20
2017,10,27,06,46,2.20
2017,10,27,06,47,2.20
2017,10,27,06,48,2.20
2017,10,27,06,49,2.20
2017,10,27,06,50,2.20
2017,10,27,06,51,2.20
2017,10,27,06,52,2.10
2017,10,27,06,53,2.10
2017,10,27,06,54,2.10
2017,10,27,06,55,2.10
2017,10,27,06,56,2.10
2017,10,27,06,57,2.10
2017,10,27,06,58,2.10
2017,10,27,06,59,2.10
2017,10,27,07,00,2.10
2017,10,27,07,01,2.10
2017,10,27,07,02,2.10
2017,10,27,07,03,2.20
2017,10,27,07,04,2.20
2017,10,27,07,05,2.20
2017,10,27,07,06,2.20
2017,10,27,07,07,2.20
2017,10,27,07,08,2.20
2017,10,27,07,09,2.20
2017,10,27,07,10,2.20
2017,10,27,07,11,2.20
2017,10,27,07,12,2.20
2017,10,27,07,13,2.20
2017,10,27,07,14,2.20
2017,10,27,07,15,2.20
2017,10,27,07,16,2.20
2017,10,27,07,17,2.20
2017,10,27,07,18,2.20
2017,10,27,07,19,2.20
2017,10,27,07,20,2.20
2017,10,27,07,21,2.20
2017,10,27,07,22,2.20
2017,10,27,07,23,2.20
2017,10,27,07,24,2.20
2017,10,27,07,25,2.20
2017,10,27,07,26,2.20
2017,10,27,07,27,2.20
2017,10,27,07,28,2.20
2017,10,27,07,29,2.20
2017,10,27,07,30,2.20
2017,10,27,07,31,2.20
2017,10,27,07,32,2.20
2017,10,27,07,33,2.10
2017,10,27,07,34,2.10
2017,10,27,07,35,2.10
2017,10,27,07,36,2.10
2017,10,27,07,37,2.10
2017,10,27,07,38,2.10
2017,10,27,07,39,2.10
2017,10,27,07,40,2.10
2017,10,27,07,41,2.10
2017,10,27,07,42,2.10
2017,10,27,07,43,2.10
2017,10,27,07,44,2.10
2017,10,27,07,45,2.10
2017,10,27,07,46,2.10
2017,10,27,07,47,2.10
2017,10,27,07,48,2.10
2017,10,27,07,49,2.10
2017,10,27,07,50,2.10
2017,10,27,07,51,2.10
2017,10,27,07,52,2.10
2017,10,27,07,53,2.10
2017,10,27,07,54,2.10
2017,10,27,07,55,2.10
2017,10,27,07,56,2.10
2017,10,27,07,57,2.10
2017,10,27,07,58,2.10
2017,10,27,07,59,2.10
2017,10,27,08,00,2.10
2017,10,27,08,01,2.10
2017,10,27,08,02,2.10
2017,10,27,08,03,2.10
2017,10,27,08,04,2.10
2017,10,27,08,05,2.10
2017,10,27,08,06,2.10
2017,10,27,08,07,2.10
2017,10,27,08,08,2.10
2017,10,27,08,09,2.20
2017,10,27,08,10,2.20
2017,10,27,08,11,2.20
2017,10,27,08,12,2.20
2017,10,27,08,13,2.20
2017,10,27,08,14,2.20
2017,10,27,08,15,2.20
2017,10,27,08,16,2.20
2017,10,27,08,17,2.20
2017,10,27,08,18,2.20
2017,10,27,08,19,2.20
2017,10,27,08,20,2.20
2017,10,27,08,21,2.20
2017,10,27,08,22,2.20
2017,10,27,08,23,2.20
2017,10,27,08,24,2.20
2017,10,27,08,25,2.20
2017,10,27,08,26,2.20
2017,10,27,08,27,2.20
2017,10,27,08,28,2.20
2017,10,27,08,29,2.20
2017,10,27,08,30,2.20
2017,10,27,08,31,2.20
2017,10,27,08,32,2.20
2017,10,27,08,33,2.20
2017,10,27,08,34,2.20
2017,10,27,08,35,2.20
2017,10,27,08,36,2.20
2017,10,27,08,37,2.20
2017,10,27,08,38,2.20
2017,10,27,08,39,2.20
2017,10,27,08,40,2.20
2017,10,27,08,41,2.30
2017,10,27,08,42,2.30
2017,10,27,08,43,2.30
2017,10,27,08,44,2.30
2017,10,27,08,45,2.30
2017,10,27,08,46,2.30
2017,10,27,08,47,2.30
2017,10,27,08,48,2.30
2017,10,27,08,49,2.30
2017,10,27,08,50,2.40
2017,10,27,08,51,2.40
2017,10,27,08,52,2.40
2017,10,27,08,53,2.40
2017,10,27,08,54,2.40
2017,10,27,08,55,2.50
2017,10,27,08,56,2.50
2017,10,27,08,57,2.50
2017,10,27,08,58,2.60
2017,10,27,08,59,2.60
2017,10,27,09,00,2.60
2017,10,27,09,01,2.70
2017,10,27,09,02,2.70
2017,10,27,09,03,2.70
2017,10,27,09,04,2.70
2017,10,27,09,05,2.70
2017,10,27,09,06,2.80
2017,10,27,09,07,2.80
2017,10,27,09,08,2.80
2017,10,27,09,09,2.80
2017,10,27,09,10,2.80
2017,10,27,09,11,2.90
2017,10,27,09,12,2.90
2017,10,27,09,13,2.90
2017,10,27,09,14,2.90
2017,10,27,09,15,3.00
2017,10,27,09,16,3.00
2017,10,27,09,17,3.10
2017,10,27,09,18,3.10
2017,10,27,09,19,3.10
2017,10,27,09,20,3.20
2017,10,27,09,21,3.20
2017,10,27,09,22,3.20
2017,10,27,09,23,3.30
2017,10,27,09,24,3.30
2017,10,27,09,25,3.40
2017,10,27,09,26,3.50
2017,10,27,09,27,3.60
2017,10,27,09,28,3.70
2017,10,27,09,29,3.80
2017,10,27,09,30,3.90
2017,10,27,09,31,4.00
2017,10,27,09,32,4.10
2017,10,27,09,33,4.20
2017,10,27,09,34,4.30
2017,10,27,09,35,4.50
2017,10,27,09,36,4.60
2017,10,27,09,37,4.70
2017,10,27,09,38,4.80
2017,10,27,09,39,5.00
2017,10,27,09,40,5.20
2017,10,27,09,41,5.30
2017,10,27,09,42,5.40
2017,10,27,09,43,5.50
2017,10,27,09,44,5.70
2017,10,27,09,45,5.80
2017,10,27,09,46,5.80
2017,10,27,09,47,5.80
2017,10,27,09,48,5.80
2017,10,27,09,49,5.80
2017,10,27,09,50,5.80
2017,10,27,09,51,5.80
2017,10,27,09,52,5.80
2017,10,27,09,53,5.80
2017,10,27,09,54,5.90
2017,10,27,09,55,5.90
2017,10,27,09,56,6.00
2017,10,27,09,57,6.00
2017,10,27,09,58,6.10
2017,10,27,09,59,6.20
2017,10,27,10,00,6.20
2017,10,27,10,01,6.20
2017,10,27,10,02,6.30
2017,10,27,10,03,6.40
2017,10,27,10,04,6.40
2017,10,27,10,05,6.50
2017,10,27,10,06,6.60
2017,10,27,10,07,6.70
2017,10,27,10,08,6.80
2017,10,27,10,09,6.90
2017,10,27,10,10,7.00
2017,10,27,10,11,7.20
2017,10,27,10,12,7.20
2017,10,27,10,13,7.30
2017,10,27,10,14,7.50
2017,10,27,10,15,7.60
2017,10,27,10,16,7.70
2017,10,27,10,17,7.90
2017,10,27,10,18,8.00
2017,10,27,10,19,8.10
2017,10,27,10,20,8.20
2017,10,27,10,21,8.20
2017,10,27,10,22,8.30
2017,10,27,10,23,8.40
2017,10,27,10,24,8.50
2017,10,27,10,25,8.60
2017,10,27,10,26,8.70
2017,10,27,10,27,8.70
2017,10,27,10,28,8.80
2017,10,27,10,29,8.90
2017,10,27,10,30,9.00
2017,10,27,10,31,9.10
2017,10,27,10,32,9.20
2017,10,27,10,33,9.30
2017,10,27,10,34,9.40
2017,10,27,10,35,9.40
2017,10,27,10,36,9.50
2017,10,27,10,37,9.60
2017,10,27,10,38,9.60
2017,10,27,10,39,9.70
2017,10,27,10,40,9.80
2017,10,27,10,41,9.80
2017,10,27,10,42,9.90
2017,10,27,10,43,10.10
2017,10,27,10,44,10.20
2017,10,27,10,45,10.30
2017,10,27,10,46,10.30
2017,10,27,10,47,10.40
2017,10,27,10,48,10.40
2017,10,27,10,49,10.40
2017,10,27,10,50,10.40
2017,10,27,10,51,10.50
2017,10,27,10,52,10.60
2017,10,27,10,53,10.60
2017,10,27,10,54,10.70
2017,10,27,10,55,10.80
2017,10,27,10,56,10.90
2017,10,27,10,57,10.90
2017,10,27,10,58,11.00
2017,10,27,10,59,11.00
2017,10,27,11,00,10.90
2017,10,27,11,01,10.90
2017,10,27,11,02,11.00
2017,10,27,11,03,11.10
2017,10,27,11,04,11.20
2017,10,27,11,05,11.20
2017,10,27,11,06,11.30
2017,10,27,11,07,11.40
2017,10,27,11,08,11.40
2017,10,27,11,09,11.40
2017,10,27,11,10,11.40
2017,10,27,11,11,11.40
2017,10,27,11,12,11.40
2017,10,27,11,13,11.40
2017,10,27,11,14,11.50
2017,10,27,11,15,11.50
2017,10,27,11,16,11.60
2017,10,27,11,17,11.70
2017,10,27,11,18,11.70
2017,10,27,11,19,11.80
2017,10,27,11,20,11.90
2017,10,27,11,21,11.90
2017,10,27,11,22,12.00
2017,10,27,11,23,12.10
2017,10,27,11,24,12.10
2017,10,27,11,25,12.20
2017,10,27,11,26,12.20
2017,10,27,11,27,12.20
2017,10,27,11,28,12.20
2017,10,27,11,29,12.30
2017,10,27,11,30,12.40
2017,10,27,11,31,12.50
2017,10,27,11,32,12.60
2017,10,27,11,33,12.70
2017,10,27,11,34,12.80
2017,10,27,11,35,12.80
2017,10,27,11,36,12.90
2017,10,27,11,37,12.90
2017,10,27,11,38,12.90
2017,10,27,11,39,12.80
2017,10,27,11,40,12.70
2017,10,27,11,41,12.70
2017,10,27,11,42,12.60
2017,10,27,11,43,12.60
2017,10,27,11,44,12.60
2017,10,27,11,45,12.60
2017,10,27,11,46,12.60
2017,10,27,11,47,12.60
2017,10,27,11,48,12.70
2017,10,27,11,49,12.70
2017,10,27,11,50,12.70
2017,10,27,11,51,12.70
2017,10,27,11,52,12.70
2017,10,27,11,53,12.70
2017,10,27,11,54,12.70
2017,10,27,11,55,12.80
2017,10,27,11,56,12.80
2017,10,27,11,57,12.80
2017,10,27,11,58,12.80
2017,10,27,11,59,12.90
2017,10,27,12,00,13.00
2017,10,27,12,01,13.10
2017,10,27,12,02,13.20
2017,10,27,12,03,13.20
2017,10,27,12,04,13.20
2017,10,27,12,05,13.30
2017,10,27,12,06,13.30
2017,10,27,12,07,13.30
2017,10,27,12,08,13.30
2017,10,27,12,09,13.40
2017,10,27,12,10,13.60
2017,10,27,12,11,13.60
2017,10,27,12,12,13.70
2017,10,27,12,13,13.70
2017,10,27,12,14,13.70
2017,10,27,12,15,13.70
2017,10,27,12,16,13.80
2017,10,27,12,17,13.80
2017,10,27,12,18,13.90
2017,10,27,12,19,14.00
2017,10,27,12,20,14.10
2017,10,27,12,21,14.20
2017,10,27,12,22,14.30
2017,10,27,12,23,14.40
2017,10,27,12,24,14.50
2017,10,27,12,25,14.60
2017,10,27,12,26,14.70
2017,10,27,12,27,14.80
2017,10,27,12,28,15.00
2017,10,27,12,29,15.00
2017,10,27,12,30,15.00
2017,10,27,12,31,15.00
2017,10,27,12,32,15.00
2017,10,27,12,33,15.00
2017,10,27,12,34,15.00
2017,10,27,12,35,15.00
2017,10,27,12,36,15.00
2017,10,27,12,37,15.10
2017,10,27,12,38,15.20
2017,10,27,12,39,15.30
2017,10,27,12,40,15.40
2017,10,27,12,41,15.40
2017,10,27,12,42,15.40
2017,10,27,12,43,15.30
2017,10,27,12,44,15.30
2017,10,27,12,45,15.30
2017,10,27,12,46,15.30
2017,10,27,12,47,15.30
2017,10,27,12,48,15.30
2017,10,27,12,49,15.30
2017,10,27,12,50,15.40
2017,10,27,12,51,15.40
2017,10,27,12,52,15.40
2017,10,27,12,53,15.50
2017,10,27,12,54,15.50
2017,10,27,12,55,15.60
2017,10,27,12,56,15.60
2017,10,27,12,57,15.60
2017,10,27,12,58,15.70
2017,10,27,12,59,15.70
2017,10,27,13,00,15.70
2017,10,27,13,01,15.80
2017,10,27,13,02,15.80
2017,10,27,13,03,15.90
2017,10,27,13,04,15.90
2017,10,27,13,05,16.00
2017,10,27,13,06,16.10
2017,10,27,13,07,16.20
2017,10,27,13,08,16.30
2017,10,27,13,09,16.30
2017,10,27,13,10,16.40
2017,10,27,13,11,16.40
2017,10,27,13,12,16.50
2017,10,27,13,13,16.60
2017,10,27,13,14,16.50
2017,10,27,13,15,16.50
2017,10,27,13,16,16.40
2017,10,27,13,17,16.40
2017,10,27,13,18,16.40
2017,10,27,13,19,16.40
2017,10,27,13,20,16.50
2017,10,27,13,21,16.50
2017,10,27,13,22,16.50
2017,10,27,13,23,16.60
2017,10,27,13,24,16.70
2017,10,27,13,25,16.80
2017,10,27,13,26,16.90
2017,10,27,13,27,16.90
2017,10,27,13,28,17.00
2017,10,27,13,29,17.10
2017,10,27,13,30,17.10
2017,10,27,13,31,17.20
2017,10,27,13,32,17.20
2017,10,27,13,33,17.30
2017,10,27,13,34,17.30
2017,10,27,13,35,17.30
2017,10,27,13,36,17.30
2017,10,27,13,37,17.30
2017,10,27,13,38,17.40
2017,10,27,13,39,17.50
2017,10,27,13,40,17.50
2017,10,27,13,41,17.60
2017,10,27,13,42,17.60
2017,10,27,13,43,17.70
2017,10,27,13,44,17.70
2017,10,27,13,45,17.70
2017,10,27,13,46,17.70
2017,10,27,13,47,17.80
2017,10,27,13,48,17.80
2017,10,27,13,49,17.80
2017,10,27,13,50,17.90
2017,10,27,13,51,17.90
2017,10,27,13,52,17.90
2017,10,27,13,53,17.90
2017,10,27,13,54,17.90
2017,10,27,13,55,17.90
2017,10,27,13,56,17.90
2017,10,27,13,57,17.90
2017,10,27,13,58,18.00
2017,10,27,13,59,18.10
2017,10,27,14,00,18.10
2017,10,27,14,01,18.10
2017,10,27,14,02,18.20
2017,10,27,14,03,18.20
2017,10,27,14,04,18.20
2017,10,27,14,05,18.20
2017,10,27,14,06,18.30
2017,10,27,14,07,18.40
2017,10,27,14,08,18.50
2017,10,27,14,09,18.60
2017,10,27,14,10,18.80
2017,10,27,14,11,18.90
2017,10,27,14,12,19.10
2017,10,27,14,13,19.10
2017,10,27,14,14,19.20
2017,10,27,14,15,19.30
2017,10,27,14,16,19.30
2017,10,27,14,17,19.30
2017,10,27,14,18,19.40
2017,10,27,14,19,19.40
2017,10,27,14,20,19.40
2017,10,27,14,21,19.40
2017,10,27,14,22,19.30
2017,10,27,14,23,19.20
2017,10,27,14,24,19.00
2017,10,27,14,25,18.90
2017,10,27,14,26,18.80
2017,10,27,14,27,18.80
2017,10,27,14,28,18.70
2017,10,27,14,29,18.60
2017,10,27,14,30,18.50
2017,10,27,14,31,18.40
2017,10,27,14,32,18.40
2017,10,27,14,33,18.30
2017,10,27,14,34,18.30
2017,10,27,14,35,18.30
2017,10,27,14,36,18.20
2017,10,27,14,37,18.20
2017,10,27,14,38,18.20
2017,10,27,14,39,18.20
2017,10,27,14,40,18.20
2017,10,27,14,41,18.20
2017,10,27,14,42,18.20
2017,10,27,14,43,18.30
2017,10,27,14,44,18.40
2017,10,27,14,45,18.40
2017,10,27,14,46,18.50
2017,10,27,14,47,18.50
2017,10,27,14,48,18.60
2017,10,27,14,49,18.70
2017,10,27,14,50,18.80
2017,10,27,14,51,18.90
2017,10,27,14,52,19.00
2017,10,27,14,53,19.10
2017,10,27,14,54,19.20
2017,10,27,14,55,19.20
2017,10,27,14,56,19.30
2017,10,27,14,57,19.40
2017,10,27,14,58,19.40
2017,10,27,14,59,19.50
2017,10,27,15,00,19.50
2017,10,27,15,01,19.60
2017,10,27,15,02,19.60
2017,10,27,15,03,19.60
2017,10,27,15,04,19.60
2017,10,27,15,05,19.60
2017,10,27,15,06,19.60
2017,10,27,15,07,19.60
2017,10,27,15,08,19.60
2017,10,27,15,09,19.60
2017,10,27,15,10,19.60
2017,10,27,15,11,19.70
2017,10,27,15,12,19.70
2017,10,27,15,13,19.70
2017,10,27,15,14,19.70
2017,10,27,15,15,19.70
2017,10,27,15,16,19.70
2017,10,27,15,17,19.70
2017,10,27,15,18,19.70
2017,10,27,15,19,19.70
2017,10,27,15,20,19.70
2017,10,27,15,21,19.80
2017,10,27,15,22,19.80
2017,10,27,15,23,19.80
2017,10,27,15,24,19.80
2017,10,27,15,25,19.80
2017,10,27,15,26,19.80
2017,10,27,15,27,19.80
2017,10,27,15,28,19.80
2017,10,27,15,29,19.80
2017,10,27,15,30,19.80
2017,10,27,15,31,19.80
2017,10,27,15,32,19.80
2017,10,27,15,33,19.80
2017,10,27,15,34,19.80
2017,10,27,15,35,19.80
2017,10,27,15,36,19.80
2017,10,27,15,37,19.80
2017,10,27,15,38,19.70
2017,10,27,15,39,19.70
2017,10,27,15,40,19.70
2017,10,27,15,41,19.60
2017,10,27,15,42,19.60
2017,10,27,15,43,19.50
2017,10,27,15,44,19.50
2017,10,27,15,45,19.40
2017,10,27,15,46,19.30
2017,10,27,15,47,19.30
2017,10,27,15,48,19.30
2017,10,27,15,49,19.20
2017,10,27,15,50,19.20
2017,10,27,15,51,19.10
2017,10,27,15,52,19.10
2017,10,27,15,53,19.10
2017,10,27,15,54,19.00
2017,10,27,15,55,19.00
2017,10,27,15,56,19.00
2017,10,27,15,57,18.90
2017,10,27,15,58,18.90
2017,10,27,15,59,18.90
2017,10,27,16,00,18.80
2017,10,27,16,01,18.80
2017,10,27,16,02,18.80
2017,10,27,16,03,18.70
2017,10,27,16,04,18.70
2017,10,27,16,05,18.70
2017,10,27,16,06,18.70
2017,10,27,16,07,18.70
2017,10,27,16,08,18.60
2017,10,27,16,09,18.60
2017,10,27,16,10,18.60
2017,10,27,16,11,18.60
2017,10,27,16,12,18.50
2017,10,27,16,13,18.50
2017,10,27,16,14,18.50
2017,10,27,16,15,18.50
2017,10,27,16,16,18.40
2017,10,27,16,17,18.40
2017,10,27,16,18,18.40
2017,10,27,16,19,18.40
2017,10,27,16,20,18.40
2017,10,27,16,21,18.30
2017,10,27,16,22,18.30
2017,10,27,16,23,18.30
2017,10,27,16,24,18.30
2017,10,27,16,25,18.20
2017,10,27,16,26,18.20
2017,10,27,16,27,18.20
2017,10,27,16,28,18.20
2017,10,27,16,29,18.10
2017,10,27,16,30,18.10
2017,10,27,16,31,18.10
2017,10,27,16,32,18.10
2017,10,27,16,33,18.10
2017,10,27,16,34,18.00
2017,10,27,16,35,18.00
2017,10,27,16,36,18.00
2017,10,27,16,37,17.90
2017,10,27,16,38,17.90
2017,10,27,16,39,17.90
2017,10,27,16,40,17.90
2017,10,27,16,41,17.80
2017,10,27,16,42,17.80
2017,10,27,16,43,17.80
2017,10,27,16,44,17.80
2017,10,27,16,45,17.80
2017,10,27,16,46,17.70
2017,10,27,16,47,17.70
2017,10,27,16,48,17.70
2017,10,27,16,49,17.70
2017,10,27,16,50,17.70
2017,10,27,16,51,17.70
2017,10,27,16,52,17.60
2017,10,27,16,53,17.60
2017,10,27,16,54,17.60
2017,10,27,16,55,17.60
2017,10,27,16,56,17.50
2017,10,27,16,57,17.50
2017,10,27,16,58,17.50
2017,10,27,16,59,17.40
2017,10,27,17,00,17.40
2017,10,27,17,01,17.40
2017,10,27,17,02,17.30
2017,10,27,17,03,17.30
2017,10,27,17,04,17.20
2017,10,27,17,05,17.20
2017,10,27,17,06,17.20
2017,10,27,17,07,17.10
2017,10,27,17,08,17.00
2017,10,27,17,09,17.00
2017,10,27,17,10,16.90
2017,10,27,17,11,16.80
2017,10,27,17,12,16.70
2017,10,27,17,13,16.70
2017,10,27,17,14,16.60
2017,10,27,17,15,16.50
2017,10,27,17,16,16.50
2017,10,27,17,17,16.40
2017,10,27,17,18,16.30
2017,10,27,17,19,16.30
2017,10,27,17,20,16.30
2017,10,27,17,21,16.20
2017,10,27,17,22,16.20
2017,10,27,17,23,16.10
2017,10,27,17,24,16.10
2017,10,27,17,25,16.10
2017,10,27,17,26,16.00
2017,10,27,17,27,16.00
2017,10,27,17,28,15.90
2017,10,27,17,29,15.90
2017,10,27,17,30,15.80
2017,10,27,17,31,15.80
2017,10,27,17,32,15.80
2017,10,27,17,33,15.70
2017,10,27,17,34,15.70
2017,10,27,17,35,15.60
2017,10,27,17,36,15.60
2017,10,27,17,37,15.60
2017,10,27,17,38,15.50
2017,10,27,17,39,15.50
2017,10,27,17,40,15.40
2017,10,27,17,41,15.40
2017,10,27,17,42,15.40
2017,10,27,17,43,15.40
2017,10,27,17,44,15.40
2017,10,27,17,45,15.40
2017,10,27,17,46,15.40
2017,10,27,17,47,15.40